STARLINK-3080, 49161

Orbit data source: Space-Track

STARLINK-3080, 49161 is a payload satellite owned by SpaceX/Seattle (US) in LEO that was launched on Tue, 14 Sep 2021 UTC via an FALCON 9 launch vehicle from the Air Force Western Test Range (AFWTR). Payload-class satellites include a variety of spacecraft equipped with specific instruments for various scientific and technological missions. These include communications satellites like Starlink; space stations such as the ISS; scientific satellites like the Hubble; Earth observation satellites from companies like Planet Labs, Umbra, and HawkEye 360; GPS; miniature CubeSats for education and research; and military/defense satellites.

Loading next visibility...
Identifier
49161, 2021-082AH
Orbit
LEO
Country
Flag of USUS
Related business
Manufacturer
SpaceX/Seattle
Mission
Operational Commercial Communications
Bus & Motor
STARLINK, Unknown motor
Mass
297 kg wet, ~275 kg dry
Launch date (UTC)
2021-09-14 (4 years ago)
Launch vehicle
FALCON 9
Launch site
Air Force Western Test Range (AFWTR)
Object type
Payload
Rocket body
Debris
Shape & HBR
Box + 1 Pan, 10.1 m
Radar Cross Section
13.562 m², Large (>1 m²)

Expand to show TLE details & history
Last TLE update: 12 hours ago

TLE from 12 hours ago
0 STARLINK-3080
1 49161U 21082AH  26071.75154351  .00000577  00000-0  56188-4 0  9992
2 49161  69.9978 286.7143 0002978 274.5013  85.5806 14.98314276247516
Epoch: 2026-03-12T18:02Z
TLE epoch observation values (Epoch: 2026-03-12T18:02:13.359Z)
Latitude
0.00001°
Longitude
-154.23829°
Altitude
574.369 km
Speed
7.574 km/s
True Right ascension
19h 06m 51s
True Declination
0° 00' 00"
Sunlit
Object was in daylight at epoch
Visualization orbit readout
Latitude
Unknown
Longitude
Unknown
Altitude
Unknown
Speed
Unknown
Apparent Right ascension
Unknown
Apparent Declination
Unknown
Sunlit
N/A
Visualization observer readout
Local Sidereal Time
10:12:10
Azimuth
Unknown
Elevation
Unknown
Doppler factor
Unknown
Orbital elements
Apogee altitude
572.122 km
Perigee altitude
567.984 km
Semi-major axis
6,948.19 km
Eccentricity
0.0003
Inclination
69.9978°
RAAN
286.7143°
Arg. of periapsis
274.5013°
True anomaly
85.61462°
Mean anomaly
85.5806°
Eccentric anomaly
85.59761°
Mean motion
3.74745 °/min
Orbital period
96.07 mins
BSTAR
0.000056188
Loading maneuver chart data...
Computing Atmospheric mass density...

Documentation

Showing up to 5 results
|